Regional Weather Roundup
Issued by NWS

Home | Current Version | Previous Version | Text Only | Print | Product List | Glossary Off
Versions: 1 2 3 4 5 6 7 8 9 10 11 12 13 14 15 16 17 18 19 20 21 22 23 24 25 26 27 28 29 30 31 32 33 34 35 36 37 38 39 40 41 42 43 44 45 46 47 48 49 50

000
ASUS43 KOAX 171710
RWRNE

WEATHER ROUNDUP FOR NEBRASKA
NATIONAL WEATHER SERVICE OMAHA NE
1200 PM CDT TUE OCT 17 2017

NOTES: SATELLITE DATA IS BEING USED TO AUGMENT CLOUD COVER ABOVE
       12000 FEET.
       "FAIR" INDICATES FEW OR NO CLOUDS BELOW 12,000 FEET WITH NO
       SIGNIFICANT WEATHER AND/OR OBSTRUCTIONS TO VISIBILITY.


NEZ001>004-019>022-054>056-171800-
NEBRASKA PANHANDLE

CITY           SKY/WX    TMP DP  RH WIND       PRES   REMARKS
SCOTTSBLUFF    SUNNY     61  29  29 W3        30.15F
ALLIANCE       SUNNY     69  19  15 W16G23    30.12F
CHADRON        SUNNY     67  19  16 W5        30.09F
GORDON         FAIR      64  32  30 CALM      30.09F
KIMBALL        SUNNY     73  16  11 W22       30.19F
SIDNEY         SUNNY     74  15  10 SW20G26   30.17F
$$

NEZ057>060-069>072-079>082-171800-
SOUTHWEST NEBRASKA

CITY           SKY/WX    TMP DP  RH WIND       PRES   REMARKS
NORTH PLATTE   SUNNY     64  43  46 W5        30.13F
IMPERIAL       SUNNY     68  28  22 VRB3      30.16F
LEXINGTON      SUNNY     66  42  40 W3        30.13S
MCCOOK         SUNNY     63  41  44 W6        30.14F
OGALLALA       SUNNY     62  35  36 CALM      30.15F
$$

NEZ005>010-023>029-035>040-094-171800-
NORTH CENTRAL NEBRASKA

CITY           SKY/WX    TMP DP  RH WIND       PRES   REMARKS
VALENTINE      SUNNY     74  34  23 SW9       30.06F
AINSWORTH      SUNNY     72  35  25 SW14      30.08F
BROKEN BOW     SUNNY     70  45  40 S3        30.11F
O`NEILL        SUNNY     70  46  41 SW5       30.08F
ORD            SUNNY     68  44  42 NW3       30.08F
THEDFORD       SUNNY     74  32  21 S10       30.10F
$$

NEZ041-046>049-061>064-073>077-083>087-171800-
SOUTH CENTRAL NEBRASKA

CITY           SKY/WX    TMP DP  RH WIND       PRES   REMARKS
GRAND ISLAND   SUNNY     69  42  37 NW3       30.10F
AURORA         SUNNY     67  41  38 CALM      30.09S
HASTINGS       SUNNY     69  41  36 NW5       30.10F
HEBRON         SUNNY     64  42  43 S7        30.11S
HOLDREGE       SUNNY     69  38  32 CALM      30.12F
KEARNEY        SUNNY     70  39  32 CALM      30.12F
YORK           SUNNY     63  45  51 CALM      30.10S
$$

NEZ011>018-030>034-042>045-171800-
NORTHEAST NEBRASKA

CITY           SKY/WX    TMP DP  RH WIND       PRES   REMARKS
NORFOLK        SUNNY     67  44  43 CALM      30.06S
ALBION         SUNNY     70  40  33 CALM      30.08F
BLAIR          SUNNY     62  44  51 S5        30.09F
COLUMBUS       SUNNY     62  44  51 S3        30.09S
FREMONT        SUNNY     61  43  52 S3        30.10S
TEKAMAH        SUNNY     63  41  44 VRB5      30.09F
WAYNE          SUNNY     67  44  42 CALM      30.07S
$$

NEZ050>053-065>068-078-088>093-171800-
SOUTHEAST NEBRASKA

CITY           SKY/WX    TMP DP  RH WIND       PRES   REMARKS
LINCOLN        SUNNY     63  44  50 S8        30.10F
OMAHA EPPLEY   SUNNY     62  43  49 S7        30.10F
BEATRICE       SUNNY     63  44  51 S9        30.10F
FALLS CITY     SUNNY     65  43  44 SW15G22   30.12F
NEBRASKA CITY  SUNNY     65  45  48 S9        30.11F
PLATTSMOUTH    SUNNY     64  45  49 S7        30.11S
$$

NEZ044-045-051>053-067-171800-
OMAHA AREA

CITY           SKY/WX    TMP DP  RH WIND       PRES   REMARKS
OMAHA EPPLEY   SUNNY     62  43  49 S7        30.10F
BLAIR          SUNNY     62  44  51 S5        30.09F
FREMONT        SUNNY     61  43  52 S3        30.10S
MILLARD        SUNNY     64  46  51 SW3       30.10S
OFFUTT AFB     SUNNY     63  44  49 S8        30.09F
PLATTSMOUTH    SUNNY     64  45  49 S7        30.11S
WAHOO          FAIR      62  41  45 CALM      30.09F
$$




USA.gov is the U.S. government's official web portal to all federal, state and local government web resources and services.